sat.trackr.live / text

‹ back to catalog

STARLINK-3271

NORAD 50167 · 2021-125M

PAYLOAD ACTIVE UNKNOWN

§ Identity

Operator
Country
US
Launch date
2021-12-18
Launch site
AFWTR
Launch vehicle
Mass (kg)
RCS (m²)

Purposes: comms

External: N2YO · Heavens-Above · Gunter

§ Orbital elements

Epoch: 2026-05-25T01:25:12.472032Z

Period
95.44 min
Inclination
53.2150°
Eccentricity
0.0001901
Mean motion
15.08813541 rev/d
Perigee alt
538.5 km
Apogee alt
541.1 km
Semi-major
6,918.0 km
B*
3.2343e-4
RAAN
276.2918°
Arg perigee
85.9284°
Mean anomaly
274.1925°
Rev number
24,798

§ Raw data

STARLINK-32711 50167U 21125M   26145.05917213  .00004859  00000+0  32343-3 0  99992 50167  53.2150 276.2918 0001901  85.9284 274.1925 15.08813541247985

JSON: /api/v1/satellites/50167 · /tle

For live sub-satellite position, see the globe view (requires WebGL).

§ Visibility from observer

Set your observer location to see the next 7 days of passes ≥ 10°. The values pass through the URL so the page stays shareable.

No JS? Fill the form by hand. The geolocation button needs JavaScript.